This demonstration page uses our WeatherBlox Daily Observations layout. Learn more.

Left ArrowRight Arrow

53.62937, 11.41316

Hourly Observations for August 1, 2021

Temp ( °F °C ) Dew Point ( °F °C ) Humidity (%) Winds ( mph kmh ) Pressure ( in mb ) Visibility ( mi km ) Precip ( " mm )
7:50 am 07:50 Mostly Cloudy 59 15 59 15 100 100 SW 3 6 29.71 1006 30 48 N/A
8:20 am 08:20 Partly Cloudy 61 16 59 15 94 94 SSW 7 11 29.71 1006 30 48 N/A
8:50 am 08:50 Partly Cloudy 61 16 59 15 94 94 SW 10 17 29.71 1006 30 48 N/A
9:20 am 09:20 Partly Cloudy 63 17 59 15 88 88 SSW 9 15 29.71 1006 30 48 N/A
9:50 am 09:50 Mostly Cloudy with Showers Nearby 61 16 57 14 88 88 SSW 10 17 29.71 1006 30 48 N/A
10:20 am 10:20 Partly Cloudy with Showers Nearby 61 16 59 15 94 94 SW 5 7 29.74 1007 30 48 N/A
10:50 am 10:50 Mostly Cloudy with Light Rain 63 17 61 16 94 94 SSW 13 20 29.71 1006 6 9 N/A
11:20 am 11:20 Mostly Cloudy with Light Rain 63 17 59 15 88 88 SW 8 13 29.71 1006 30 48 N/A
11:50 am 11:50 Mostly Cloudy with Rain 63 17 59 15 88 88 SSW 10 17 29.71 1006 5 8 N/A
12:20 pm 12:20 Partly Cloudy 63 17 61 16 94 94 SSW 7 11 29.71 1006 30 48 N/A
12:50 pm 12:50 Partly Cloudy 68 20 61 16 78 78 SSW 8 13 29.71 1006 30 48 N/A
1:20 pm 13:20 Partly Cloudy with Showers Nearby 66 19 59 15 78 78 SSW 8 13 29.71 1006 30 48 N/A
1:50 pm 13:50 Mostly Cloudy with Light Showers 63 17 57 14 83 83 WSW 7 11 29.71 1006 30 48 N/A
2:20 pm 14:20 Mostly Cloudy with Light Rain 59 15 57 14 94 94 VRB 3 6 29.71 1006 30 48 N/A
2:50 pm 14:50 Mostly Cloudy with Light Rain 61 16 59 15 94 94 SW 5 7 29.71 1006 6 9 N/A
3:20 pm 15:20 Mostly Cloudy with Light Rain 61 16 61 16 100 100 SW 6 9 29.71 1006 30 48 N/A
3:50 pm 15:50 Partly Cloudy with Light Rain 63 17 61 16 94 94 S 6 9 29.71 1006 30 48 N/A
4:20 pm 16:20 Mostly Sunny 63 17 61 16 94 94 SSW 7 11 29.71 1006 30 48 N/A
4:50 pm 16:50 Partly Cloudy 63 17 59 15 88 88 SW 8 13 29.71 1006 30 48 N/A
5:20 pm 17:20 Partly Cloudy 64 18 59 15 83 83 SW 9 15 29.71 1006 30 48 N/A
5:50 pm 17:50 Partly Cloudy 66 19 59 15 78 78 SW 8 13 29.71 1006 30 48 N/A
6:20 pm 18:20 Partly Cloudy 66 19 57 14 73 73 SW 8 13 29.71 1006 30 48 N/A
6:50 pm 18:50 Partly Cloudy 64 18 57 14 78 78 SW 9 15 29.71 1006 30 48 N/A
7:20 pm 19:20 Partly Cloudy 64 18 55 13 73 73 VRB 8 13 29.71 1006 30 48 N/A
7:50 pm 19:50 Mostly Sunny 64 18 55 13 73 73 WSW 6 9 29.71 1006 30 48 N/A
8:20 pm 20:20 Mostly Sunny 63 17 52 11 68 68 WSW 5 7 29.74 1007 30 48 N/A
8:50 pm 20:50 Mostly Sunny 61 16 52 11 72 72 SW 6 9 29.74 1007 7 11 N/A
9:20 pm 21:20 Mostly Clear 59 15 52 11 77 77 SW 6 9 29.74 1007 7 11 N/A
9:50 pm 21:50 Mostly Clear 59 15 52 11 77 77 WSW 5 7 29.77 1008 7 11 N/A

Powered by AerisWeather